Location: Elstree
(51.6403°N, 0.2969°W)
Time: 05:04:45
(UTC+00:00)

deb Delta 107 - Pass Details

Date: 31 January 2022
Orbit: 707 x 861 km, 97.7° (Epoch: 23 May)

Event Time Altitude Azimuth Distance (km) Brightness Sun altitude
Rises 18:14:00 0° 184° (S) 3,190 ? -13.3°
Reaches altitude 10° 18:16:25 10° 191° (S) 2,249 ? -13.7°
Maximum altitude 18:21:06 43° 263° (W) 1,022 ? -14.4°
Drops below altitude 10° 18:25:42 10° 335° (NNW) 2,205 ? -15.1°
Sets 18:28:03 0° 342° (NNW) 3,122 ? -15.5°
